Terug naar catalogus

FENGYUN 1C DEB

ActiefPO
NORAD 30716·DEBRIS·🇨🇳 China

Gelanceerd May 10, 1999 vanaf Taiyuan Satellite Launch Center

Loading…

Volgende Passages (komende 24 uur)

TLE

VersSource: Space-Track

Epoch: Sep 14, 2026, 02:06 UTC

1 30716U 99025ASA 26257.08802686  .00025980  00000-0  23252-2 0  9992
2 30716  98.8555 117.6139 0014043 295.8409 216.8313 14.95749714 19180

Volg FENGYUN 1C DEB in realtime met AllMySat

Download on the App Store